To NAV CANADA Home Page Login to a new session Search on AWWS site Disclaimer Vers la page française équivalente Tips FAQ What's new on the site To the Forecasts and Observations / NOTAM section To "File a Flight Plan" website Publications and other links Update of the User's profile FIC Telephone Numbers My Weather Data Folder Route Weather Data Regional Weather Data Local Weather Data To the Forecasts and Observations / NOTAM section
Request Generated 03/21/2019 at 01:54:59 UTC . Weather information available at that time is displayed.

METAR/TAF

ST. CATHARINES/NIAGARA DISTRICT/ON    

METAR CYSN 210100Z 04004KT 040V120 15SM OVC055 05/M02 A3008 RMK SC8 LAST STFD OBS/NEXT 21 1100UTC SLP190=
METAR CYSN 210000Z 04003KT 15SM OVC078 06/M02 A3006 RMK AC8 SLP185=
METAR CYSN 202300Z 03005KT 15SM BKN095 OVC250 08/M03 A3007 RMK AC6CI2 SLP186=

*** REMARK        : Forecast period has ended; this was the last TAF issued
*** REMARQUE : La période de prévision est échue; ceci était le dernier TAF qui a été émis
TAF CYSN 201939Z 2020/2101 21012G22KT P6SM FEW030 BKN120
FM202100 21012G22KT P6SM SCT050 BKN120
BECMG 2021/2023 19010KT
FM210000 VRB03KT P6SM OVC060
RMK NXT FCST WILL BE ISSUED AT 211245Z=
Your time UTC time
Weather data provided by Environment Canada and NAV CANADA